This is the latest recevied weather packets stored in our database for station/object KF4CQ. If no packets are shown the sender has not sent any weather packets the latest 10 day(s).
| Time | Temp. | Humidity | Pressure | Rain* | Wind** | Luminosity | Snow |
|---|---|---|---|---|---|---|---|
| 1778247938 | 26.67° C | 88% | 1017 hPa | 0 mm | - | 331 W/m² | - |
| 1778247636 | 26.67° C | 89% | 1017.1 hPa | 0 mm | - | 141 W/m² | - |
| 1778247333 | 26.11° C | 91% | 1017.1 hPa | 0 mm | - | 174 W/m² | - |
| 1778247030 | 26.11° C | 92% | 1017.1 hPa | 0 mm | - | 117 W/m² | - |
| 1778246728 | 26.67° C | 91% | 1017 hPa | 0 mm | - | 133 W/m² | - |
| 1778246424 | 26.11° C | 92% | 1016.8 hPa | 0 mm | - | 204 W/m² | - |
| 1778246119 | 26.11° C | 92% | 1016.8 hPa | 0 mm | - | 82 W/m² | - |
| 1778245816 | 25.56° C | 94% | 1016.9 hPa | 0 mm | - | 259 W/m² | - |
| 1778245514 | 26.11° C | 93% | 1016.7 hPa | 0 mm | - | 121 W/m² | - |
| 1778245210 | 25.56° C | 95% | 1016.6 hPa | 0 mm | - | 119 W/m² | - |
| 1778244906 | 25° C | 95% | 1016.7 hPa | 0 mm | - | 98 W/m² | - |
| 1778244603 | 25° C | 95% | 1016.8 hPa | 0 mm | - | 118 W/m² | - |
| 1778244301 | 25° C | 96% | 1016.7 hPa | 0 mm | - | 97 W/m² | - |
| 1778243998 | 25° C | 96% | 1016.7 hPa | 0 mm | - | 87 W/m² | - |
| 1778243697 | 24.44° C | 97% | 1016.6 hPa | 0 mm | - | 94 W/m² | - |
| 1778243392 | 24.44° C | 97% | 1016.7 hPa | 0 mm | - | 75 W/m² | - |
| 1778243090 | 24.44° C | 97% | 1016.6 hPa | 0 mm | - | 82 W/m² | - |
| 1778242787 | 23.89° C | 98% | 1016.7 hPa | 0 mm | - | 75 W/m² | - |
| 1778242485 | 23.89° C | 99% | 1016.4 hPa | 0 mm | - | 55 W/m² | - |
| 1778242182 | 23.89° C | 99% | 1016.4 hPa | 0 mm | - | 46 W/m² | - |
| 1778241880 | 23.89° C | 99% | 1016.2 hPa | 0 mm | - | 48 W/m² | - |
| 1778241578 | 23.33° C | 99% | 1016.3 hPa | 0 mm | - | 38 W/m² | - |
| 1778241275 | 23.33° C | 99% | 1016.2 hPa | 0 mm | - | 48 W/m² | - |
| 1778240971 | 23.33° C | 99% | 1016.2 hPa | 0 mm | - | 40 W/m² | - |
| 1778240669 | 23.33° C | 99% | 1016.2 hPa | 0 mm | - | 45 W/m² | - |
* Rain latest hour (hover to see other rain measurements)
** Current wind speed in m/s (hover to see current wind gust speed)